STARLINK-34053, 63837

Orbit data source: Space-Track

STARLINK-34053, 63837 is a payload satellite owned by SpaceX/Seattle (US) in LEO that was launched on Wed, 07 May 2025 UTC via an FALCON 9 launch vehicle from the Air Force Eastern Test Range (AFETR). Payload-class satellites include a variety of spacecraft equipped with specific instruments for various scientific and technological missions. These include communications satellites like Starlink; space stations such as the ISS; scientific satellites like the Hubble; Earth observation satellites from companies like Planet Labs, Umbra, and HawkEye 360; GPS; miniature CubeSats for education and research; and military/defense satellites.

Loading next visibility...
Identifier
63837, 2025-093B
Orbit
LEO
Country
Flag of USUS
Related business
Manufacturer
SpaceX/Seattle
Mission
Operational Commercial Communications
Bus & Motor
STARLINK V2MO, Unknown motor
Mass
575 kg wet, ~530 kg dry
Launch date (UTC)
2025-05-07 (7 months ago)
Launch vehicle
FALCON 9
Launch site
Air Force Eastern Test Range (AFETR)
Object type
Payload
Rocket body
Debris
Shape & HBR
Box + 2 Pan, 17.7 m
Radar Cross Section
36.964 m², Large (>1 m²)

Expand to show TLE details & history
Last TLE update: 16 hours ago

TLE from 16 hours ago
0 STARLINK-34053
1 63837U 25093B   25348.96546168  .00022922  00000-0  83978-3 0  9998
2 63837  43.0020 196.4752 0001744 263.8354  96.2299 15.27585012 34953
Epoch: 2025-12-14T23:10Z
TLE epoch observation values (Epoch: 2025-12-14T23:10:15.889Z)
Latitude
-0°
Longitude
125.03818°
Altitude
482.94 km
Speed
7.626 km/s
True Right ascension
13h 05m 54s
True Declination
0° 00' 00"
Sunlit
Object was in daylight at epoch
Visualization orbit readout
Latitude
Unknown
Longitude
Unknown
Altitude
Unknown
Speed
Unknown
Apparent Right ascension
Unknown
Apparent Declination
Unknown
Sunlit
N/A
Visualization observer readout
Local Sidereal Time
13:22:51
Azimuth
Unknown
Elevation
Unknown
Doppler factor
Unknown
Orbital elements
Apogee altitude
486.176 km
Perigee altitude
483.782 km
Semi-major axis
6,863.116 km
Eccentricity
0.00017
Inclination
43.002°
RAAN
196.4752°
Arg. of periapsis
263.8354°
True anomaly
96.24977°
Mean anomaly
96.2299°
Eccentric anomaly
96.23983°
Mean motion
3.81734 °/min
Orbital period
94.31 mins
BSTAR
0.00083978
Loading maneuver chart data...
Computing Atmospheric mass density...
Loading historical data...
Loading historical data...
Loading historical data...
Loading historical data...
Loading historical data...
Loading historical data...
Loading historical data...

Documentation

Showing up to 5 results
|